Dewpoint
44 44 44 44 44 43 43 43 43 42 42 42 42 42 42 42 42 42 39 40 40 35 34 34 36 37 36 35 31 34 32 29 31 30 28 27 27 27 26 21 18 21 20 18 19 20 17 18 20 26 30 31 31 33
44 43 43 42 42 42 41 41 41 41 40 40 41 40 39 40 42 39 37 38 40 36 34 35 35 34 36 37 35 35 33 30 31 30 30 30 26 29 26 19 19 21 25 22 19 17 20 20 21 24 30 33 33 33
43 43 42 42 41 41 41 41 41 41 41 40 40 41 40 39 41 40 39 38 37 34 33 30 29 31 31 31 34 33 31 33 32 34 32 31 26 28 20 20 23 23 24 23 25 23 24 30 31 30 32 33 33 33
42 42 42 42 42 42 41 40 40 40 40 39 40 40 41 42 41 41 39 38 38 35 27 26 29 29 30 30 30 34 35 34 34 35 32 29 25 30 24 25 25 24 26 24 23 24 27 29 27 28 33 33 33 32
42 41 41 41 41 41 42 42 42 42 42 42 42 42 42 41 41 40 40 42 41 35 28 28 30 30 30 30 29 30 30 31 32 30 30 27 31 30 28 28 25 27 29 23 19 25 27 25 24 25 30 30 30 30
41 41 41 41 41 41 41 42 42 42 42 42 41 41 42 42 41 37 32 40 41 40 32 25 29 31 29 28 28 27 31 31 32 31 30 32 33 31 25 23 25 23 23 24 24 23 24 25 24 24 23 23 24 25
41 41 40 41 41 41 41 41 41 42 42 42 42 42 41 40 40 35 32 38 40 41 30 25 23 27 25 27 28 28 29 30 30 30 29 28 28 29 27 21 23 22 22 22 21 23 21 22 21 22 22 21 22 22
41 40 40 40 41 42 42 42 42 42 42 42 42 40 38 39 41 36 37 38 39 35 33 25 22 23 26 26 25 25 25 26 27 26 26 25 25 24 21 25 22 22 20 20 21 22 22 22 22 22 20 20 20 20
41 40 41 41 41 40 40 40 40 40 40 40 38 36 35 33 33 35 36 36 39 34 26 25 21 20 24 23 23 25 24 23 22 22 22 22 20 19 24 22 20 23 23 23 21 21 22 21 21 21 18 19 18 18
40 41 41 40 39 39 40 40 40 40 40 37 33 31 28 32 35 35 32 29 30 27 28 23 23 21 23 23 23 23 21 21 18 19 19 19 19 21 17 18 20 20 20 16 18 20 21 21 20 17 15 15 14 15
41 40 39 38 39 40 40 40 40 40 37 34 31 29 33 35 31 23 22 21 19 19 23 24 24 23 24 23 21 23 21 20 14 15 16 16 16 20 16 14 17 15 18 20 20 21 17 18 17 15 16 15 15 13
39 38 38 39 40 40 40 40 40 38 37 35 35 35 33 24 20 16 12 13 17 16 19 23 24 25 25 26 22 21 19 15 13 14 14 14 18 17 14 13 18 20 22 21 16 16 15 14 14 14 14 14 12 10
38 38 38 39 39 39 40 39 40 38 35 32 29 26 26 19 14 11 7 13 14 18 21 22 23 24 24 24 22 18 16 14 15 13 13 15 17 18 14 13 15 16 15 14 16 15 13 13 15 16 14 12 11 11
38 38 38 38 39 39 38 39 39 35 31 24 19 13 17 13 13 13 14 16 19 18 20 21 22 23 22 21 20 15 15 14 11 8 10 16 16 13 15 13 13 16 17 18 17 17 18 17 15 12 11 10 9 8
39 39 39 39 39 38 39 38 38 34 29 20 19 14 14 18 15 15 13 14 16 16 21 22 22 22 21 18 17 14 11 9 10 10 13 18 17 17 19 20 20 19 17 16 16 14 13 12 9 8 9 9 8 7
38 38 35 38 38 39 38 38 35 33 31 25 23 19 20 18 19 15 14 16 19 19 22 23 21 17 17 16 11 10 8 7 12 13 18 18 18 16 14 13 14 13 12 12 12 11 9 9 8 8 8 7 7 7
39 35 35 36 37 38 38 34 33 32 28 24 22 25 21 18 19 20 16 17 18 22 20 19 16 13 13 12 9 11 11 15 17 18 15 17 14 12 12 11 10 10 10 9 8 8 8 8 8 7 6 6 7 7
37 36 38 39 38 36 33 33 32 28 25 24 22 21 23 24 21 20 19 17 22 22 21 20 21 15 15 10 11 14 14 15 14 12 14 16 12 8 7 7 8 8 8 8 7 7 7 7 6 5 6 7 6 7
37 38 39 39 38 34 31 31 31 24 24 20 19 19 20 21 22 23 23 20 22 23 26 24 19 17 15 17 15 13 12 11 9 8 10 13 9 8 8 8 8 7 6 5 4 4 4 5 4 4 4 4 7 6
39 39 39 40 38 32 29 29 32 28 21 21 22 20 20 22 21 19 19 20 21 22 18 18 17 15 10 10 11 10 9 6 6 4 3 3 5 7 6 5 4 6 4 2 2 6 4 1 -0 0 3 6 5 3
38 36 38 38 33 33 31 26 23 25 23 20 17 19 20 16 18 18 18 18 19 18 17 11 7 7 10 9 9 8 6 5 3 3 2 3 5 4 3 3 4 2 -0 -0 0 -1 0 -3 -2 1 3 2 2 3
35 37 33 34 32 31 29 29 22 16 22 20 19 19 17 17 16 15 15 16 17 6 3 4 3 4 6 5 5 6 5 4 4 4 4 4 -1 -1 0 1 2 1 0 1 0 -2 -3 -4 -0 1 0 1 2 -1
38 37 32 32 28 27 21 22 24 22 20 17 15 16 14 14 14 14 13 5 0 2 3 3 3 5 6 6 5 4 3 1 -1 -2 -3 -3 -4 -1 -1 -0 -0 -0 -1 -2 -2 -3 -3 2 -2 -1 -2 -3 -3 -3
37 31 27 27 26 19 15 17 17 13 12 11 12 12 10 10 9 10 10 -2 0 4 3 3 4 3 4 3 0 -2 -2 -3 -5 -6 -6 -6 -4 -4 -3 -2 -3 -4 -2 -1 -2 -3 -4 -4 1 -4 -4 -4 -4 -3
28 26 26 21 22 18 12 7 4 7 7 5 10 13 11 8 9 7 -0 -2 1 1 1 1 1 -1 -2 -3 -4 -5 -2 -4 -6 -8 -7 -7 -4 -6 -6 -4 -5 -6 -3 -2 -4 -4 -5 -4 -4 -5 -6 -5 -4 -1
20 10 10 9 10 10 10 10 10 10 10 10 9 9 11 9 7 -2 -2 -1 0 0 -2 -3 -4 -4 -6 -5 -6 -7 -6 -5 -7 -9 -9 -6 -8 -8 -7 -6 -6 -6 -4 -2 -2 -5 -5 -4 -5 -6 -6 -6 0 -7
3 3 9 15 11 12 11 14 14 10 5 2 4 5 5 3 -2 -3 -0 0 -1 -3 -4 -5 -6 -6 -7 -8 -8 -7 -8 -9 -10 -9 -8 -8 -9 -6 -4 -4 -6 -4 -0 1 -1 -3 -3 -3 -5 -5 -7 -8 -11 -12
5 0 -4 -2 2 11 8 8 4 1 2 4 5 2 1 0 -2 -1 -1 -3 -6 -9 -11 -12 -11 -11 -13 -12 -13 -15 -15 -13 -14 -12 -10 -10 -9 -6 -4 -0 -3 4 3 -1 2 3 0 -2 -2 -6 -9 -12 -15 -13
-5 -7 -7 -9 -4 -1 -2 -2 -0 1 -3 -1 -3 -3 -4 -4 -5 -4 -4 -7 -15 -14 -13 -13 -13 -19 -14 -14 -14 -16 -17 -17 -17 -18 -16 -13 -11 -9 -8 -8 -7 -6 -5 -5 4 5 3 3 2 -0 -7 -11 -13 -13
-19 -14 -17 -22 -19 -14 -9 -13 -15 -17 -13 -14 -14 -10 -8 -10 -10 -9 -8 -12 -13 -14 -14 -15 -18 -23 -17 -20 -15 -13 -11 -14 -19 -16 -16 -13 -11 -10 -9 -8 -8 -8 -5 -2 -3 -5 3 -0 -3 -9 -10 -12 -12 -10
-19 -22 -23 -23 -20 -18 -22 -24 -29 -24 -28 -29 -26 -20 -16 -13 -8 -5 -8 -11 -11 -18 -17 -13 -12 -16 -21 -15 -18 -17 -12 -12 -19 -19 -17 -14 -12 -10 -9 -8 -7 -5 -4 -3 -2 -6 -8 -10 -11 -12 -12 -13 -13 -11
-24 -32 -27 -24 -19 -22 -28 -25 -32 -32 -31 -27 -23 -27 -18 -11 -13 -13 -11 -14 -18 -17 -8 -18 -22 -14 -15 -15 -15 -15 -1 -6 -8 -9 -13 -11 -10 -8 -8 -6 -4 -3 -5 -2 -2 -5 -9 -11 -12 -12 -12 -13 -15 -16
-35 -39 -38 -35 -27 -24 -26 -26 -27 -27 -29 -28 -24 -25 -25 -18 -18 -13 -12 -12 -11 -13 -12 -11 -10 -14 -15 -15 -12 -10 -2 -9 -8 6 8 8 9 7 6 4 3 3 2 -1 -3 -4 -7 -9 -12 -12 -12 -14 -15 -17
Lifted_Index
13 13 14 15 15 15 15 15 16 16 16 16 16 16 16 16 17 17 18 18 17 16 16 16 16 15 15 14 13 13 13 13 12 10 9 9 9 9 8 8 8 8 7 7 6 6 5 5 5 5 5 5 5 4
14 14 15 15 16 16 16 16 16 17 17 17 16 16 17 17 17 18 18 19 18 17 16 17 17 17 16 16 15 14 13 13 12 11 10 10 10 10 9 9 9 8 7 7 6 5 5 4 4 4 4 4 4 4
15 15 15 16 16 16 16 16 17 17 17 17 17 17 17 17 18 18 19 19 19 17 17 17 17 17 17 17 16 15 14 13 13 12 11 11 10 10 9 9 9 8 7 6 5 4 4 4 4 4 5 4 4 4
15 15 15 15 15 15 16 16 16 16 17 17 17 17 17 17 17 18 19 19 18 17 16 16 16 17 17 16 16 15 14 13 13 12 11 10 9 9 8 8 7 6 6 5 4 4 4 4 5 5 5 5 4 4
15 15 15 15 15 15 15 15 15 16 16 16 16 16 16 16 17 18 18 18 18 17 16 16 16 16 15 15 15 14 13 13 12 11 10 9 8 8 7 7 6 6 5 4 4 4 4 5 5 5 5 4 4 4
14 14 14 14 14 14 14 15 15 15 15 15 15 16 16 16 16 17 17 17 17 16 16 15 14 14 14 13 13 12 12 12 11 10 9 8 8 7 7 7 6 6 5 5 5 5 5 4 5 5 5 4 4 4
13 13 14 13 13 14 14 14 14 14 14 14 15 15 15 16 16 16 16 16 16 15 15 14 13 12 12 12 12 11 11 11 10 9 8 8 7 7 7 7 6 6 5 5 5 5 5 4 4 4 4 4 3 3
12 12 12 12 12 13 13 13 13 14 14 14 14 15 15 15 15 14 15 14 14 13 13 12 11 11 11 11 11 11 10 10 9 8 8 7 7 7 7 6 5 5 5 5 5 5 4 4 4 3 3 3 3 3
12 11 11 11 11 12 12 12 13 13 13 14 14 14 14 14 13 13 13 13 12 12 11 11 10 10 10 10 10 10 10 9 8 8 7 7 7 7 6 5 5 5 5 5 5 4 4 4 3 3 3 3 3 3
11 11 11 11 11 11 11 11 11 12 12 13 12 12 11 11 11 11 10 10 10 10 10 10 10 9 10 10 10 9 9 8 8 7 7 7 7 6 6 5 5 5 4 4 4 4 4 3 3 3 4 4 3 3
11 11 11 11 11 10 10 10 10 11 11 11 10 9 9 9 8 8 7 7 8 8 9 9 9 8 8 9 9 9 8 8 7 7 7 7 6 6 5 5 5 5 4 4 4 4 3 3 3 3 4 4 4 4
11 11 11 11 10 10 10 10 10 10 10 9 8 8 8 7 7 6 6 6 7 7 8 8 8 7 7 7 8 8 7 7 7 6 6 6 6 6 5 5 5 5 4 4 4 3 3 3 4 4 4 4 4 4
11 11 11 10 10 10 10 9 9 9 9 8 7 7 6 6 5 5 5 6 6 7 7 7 7 7 7 7 7 7 6 6 6 5 5 5 5 5 4 4 4 4 4 4 4 4 3 4 4 4 4 4 5 5
10 10 10 10 10 9 9 9 8 8 8 7 6 5 5 5 5 5 5 6 6 7 7 7 7 7 6 6 6 6 5 5 4 4 4 4 4 4 4 4 4 4 4 4 4 4 4 4 5 5 5 6 6 5
10 10 10 10 9 9 9 9 8 7 7 7 6 5 5 5 5 5 5 6 6 6 6 6 6 7 6 6 6 5 5 4 4 3 4 4 4 4 4 4 5 5 5 5 5 5 5 5 6 6 7 7 7 7
10 10 10 10 9 9 9 9 8 7 7 7 6 5 5 5 5 5 5 5 6 6 6 6 6 6 6 6 5 5 4 4 4 4 4 4 4 4 5 5 5 5 5 6 6 6 6 7 7 7 7 8 8 8
9 10 10 9 9 9 9 8 8 7 7 7 6 5 5 5 4 5 5 5 5 5 5 5 5 5 5 5 5 4 4 4 4 4 4 4 4 5 5 6 6 6 6 6 7 7 7 8 8 8 8 9 9 9
9 9 9 8 8 8 8 8 7 7 7 7 6 5 5 5 4 4 4 5 5 5 5 5 5 5 4 4 4 4 4 4 4 4 4 4 5 6 6 7 7 7 7 7 8 8 8 8 8 8 9 9 9 9
9 8 8 7 7 7 7 7 7 7 7 7 6 6 5 5 4 4 4 4 4 4 4 4 4 4 4 4 4 4 4 4 3 3 4 5 6 6 7 7 7 7 8 8 9 9 9 9 9 9 10 10 9 9
8 8 7 6 6 6 7 7 7 7 7 7 6 6 5 5 4 4 4 4 4 4 4 4 4 4 3 3 3 4 4 4 4 4 4 5 6 7 7 7 8 8 8 9 9 10 10 10 10 10 10 10 10 9
8 7 7 6 6 6 6 7 7 7 7 6 6 5 5 4 4 3 3 3 3 3 3 3 3 3 3 3 4 5 5 6 5 5 5 6 6 7 7 8 8 8 8 9 9 10 10 11 11 12 11 11 11 11
7 7 7 6 6 7 7 7 7 6 6 6 5 4 4 4 3 3 3 3 3 3 3 3 3 3 4 5 5 7 7 7 7 7 7 7 7 8 8 9 9 9 9 10 11 11 12 12 13 13 13 13 13 13
6 6 6 6 6 6 6 6 6 5 5 4 4 3 3 3 3 2 2 2 2 3 4 4 5 5 6 7 8 8 8 8 8 8 8 9 9 9 10 11 12 12 12 13 13 13 14 14 14 15 14 14 14 14
6 6 5 5 6 6 5 5 5 4 4 3 3 2 2 2 2 2 2 2 3 4 6 7 7 7 8 8 8 9 10 10 9 10 10 10 10 11 12 12 13 14 14 15 15 15 15 15 15 15 15 15 15 14
5 5 5 4 4 4 4 4 3 3 2 2 2 2 2 2 2 2 2 3 4 6 8 9 9 8 8 9 9 10 11 12 11 11 12 12 12 12 12 13 13 14 15 15 15 15 15 15 15 15 15 15 15 15
5 5 5 5 4 4 3 3 3 3 3 3 3 3 3 3 3 3 4 5 7 8 9 10 10 9 10 10 11 12 13 13 13 12 12 13 13 12 12 12 12 14 15 15 15 15 14 14 14 14 15 15 15 15
5 5 5 6 6 5 5 5 5 4 4 4 4 4 4 4 4 5 6 8 9 11 12 12 12 12 12 12 13 13 14 14 14 13 13 14 14 14 13 13 13 14 15 15 15 15 15 14 14 14 14 15 15 16
6 6 6 6 7 7 6 6 6 6 6 6 6 5 5 6 6 7 9 11 12 13 13 14 14 14 14 14 14 14 14 14 13 13 13 13 13 14 14 15 14 15 15 15 14 14 15 15 15 14 14 14 15 15
8 8 7 7 7 7 7 8 8 8 8 8 8 8 8 8 9 10 11 12 13 13 14 14 14 14 14 14 14 14 14 13 13 12 12 12 12 14 15 15 15 15 15 14 14 14 14 15 15 15 15 14 15 15
9 9 9 8 8 8 9 10 10 10 10 10 9 9 9 10 11 12 12 13 13 13 13 13 13 13 13 13 13 13 13 13 13 13 13 12 13 14 15 15 15 15 14 14 14 14 14 14 14 14 14 14 14 14
10 10 10 9 9 10 11 11 11 11 10 10 10 10 10 10 11 12 13 13 13 13 13 13 13 13 13 13 13 13 13 14 14 14 14 14 14 15 15 15 15 15 14 14 14 14 14 13 13 13 14 14 14 14
11 11 11 10 10 11 12 12 11 10 10 10 10 10 10 10 10 11 13 13 13 13 13 13 13 13 13 13 14 14 14 14 14 15 15 15 15 15 15 15 15 14 14 14 14 14 14 13 13 13 13 13 13 13
11 11 11 11 11 11 12 12 11 10 10 10 10 10 10 10 10 11 13 13 13 13 13 13 13 13 14 14 14 15 15 15 15 15 15 15 14 14 14 14 14 14 14 14 14 14 14 14 13 13 13 13 13 13